| time (UTC) | temp F | wind direction | speed MPH | gust MPH | rain 1hr in | rain 24hr in | rain mn in | humidity % | barometer mb |
| 20260902191556 | 72 | 279 | 2.0 | 4.0 | 0.00 | 0.00 | 0.00 | 44 | 1014.1 |
| 20260902190052 | 70 | 180 | 2.0 | 5.0 | 0.00 | 0.00 | 0.00 | 45 | 1014.0 |
| 20260902184548 | 68 | 244 | 1.0 | 5.0 | 0.00 | 0.00 | 0.00 | 49 | 1014.0 |
| 20260902183058 | 67 | 287 | 2.0 | 4.0 | 0.00 | 0.00 | 0.00 | 49 | 1014.2 |
| 20260902181545 | 67 | 200 | 0.0 | 3.0 | 0.00 | 0.00 | 0.00 | 51 | 1014.2 |
| 20260902180045 | 65 | 291 | 0.0 | 2.0 | 0.00 | 0.00 | 0.00 | 54 | 1014.2 |
| 20260902174543 | 65 | 356 | 0.0 | 2.0 | 0.00 | 0.00 | 0.00 | 55 | 1014.3 |
| 20260902173053 | 65 | 236 | 0.0 | 1.0 | 0.00 | 0.00 | 0.00 | 55 | 1014.1 |
| 20260902171539 | 65 | 246 | 0.0 | 2.0 | 0.00 | 0.00 | 0.00 | 55 | 1014.0 |
| 20260902170048 | 65 | 293 | 0.0 | 2.0 | 0.00 | 0.00 | 0.00 | 57 | 1013.8 |
| 20260902164541 | 64 | 244 | 0.0 | 3.0 | 0.00 | 0.00 | 0.00 | 58 | 1013.8 |
| 20260902163135 | 62 | 178 | 0.0 | 2.0 | 0.00 | 0.00 | 0.00 | 63 | 1014.0 |
| 20260902161550 | 60 | 139 | 0.0 | 1.0 | 0.00 | 0.00 | 0.00 | 64 | 1014.0 |
| 20260902160010 | 59 | 330 | 1.0 | 1.0 | 0.00 | 0.00 | 0.00 | 69 | 1014.0 |
| 20260902154508 | 57 | 224 | 0.0 | 0.0 | 0.00 | 0.00 | 0.00 | 74 | 1013.8 |
| 20260902153002 | 56 | 224 | 0.0 | 0.0 | 0.00 | 0.00 | 0.00 | 76 | 1013.9 |
| 20260902151559 | 55 | 224 | 0.0 | 0.0 | 0.00 | 0.00 | 0.00 | 77 | 1014.0 |
| 20260902150055 | 54 | 224 | 0.0 | 0.0 | 0.00 | 0.00 | 0.00 | 80 | 1014.0 |
| 20260902144550 | 53 | 200 | 0.0 | 0.0 | 0.00 | 0.00 | 0.00 | 83 | 1013.9 |
| 20260902143051 | 52 | 200 | 0.0 | 0.0 | 0.00 | 0.00 | 0.00 | 84 | 1014.0 |
| 20260902141546 | 51 | 200 | 0.0 | 0.0 | 0.00 | 0.00 | 0.00 | 85 | 1014.0 |
| 20260902140044 | 51 | 200 | 0.0 | 0.0 | 0.00 | 0.00 | 0.00 | 85 | 1013.7 |
| 20260902134543 | 50 | 200 | 0.0 | 0.0 | 0.00 | 0.00 | 0.00 | 85 | 1013.4 |
| 20260902133016 | 50 | 200 | 0.0 | 0.0 | 0.00 | 0.00 | 0.00 | 86 | 1013.4 |
| 20260902131612 | 50 | 200 | 0.0 | 0.0 | 0.00 | 0.00 | 0.00 | 86 | 1013.3 |
| 20260902130110 | 49 | 200 | 0.0 | 0.0 | 0.00 | 0.00 | 0.00 | 87 | 1013.2 |
| 20260902124600 | 49 | 200 | 0.0 | 0.0 | 0.00 | 0.00 | 0.00 | 87 | 1013.1 |
| 20260902123100 | 49 | 200 | 0.0 | 0.0 | 0.00 | 0.00 | 0.00 | 87 | 1013.1 |
| 20260902121557 | 49 | 200 | 0.0 | 0.0 | 0.00 | 0.00 | 0.00 | 88 | 1013.0 |
| 20260902120056 | 48 | 200 | 0.0 | 0.0 | 0.00 | 0.00 | 0.00 | 89 | 1012.9 |
| 20260902114555 | 48 | 200 | 0.0 | 0.0 | 0.00 | 0.00 | 0.00 | 88 | 1012.9 |
| 20260902113054 | 48 | 200 | 0.0 | 0.0 | 0.00 | 0.00 | 0.00 | 88 | 1013.0 |
| 20260902111558 | 48 | 200 | 0.0 | 0.0 | 0.00 | 0.00 | 0.00 | 88 | 1013.2 |
| 20260902110058 | 48 | 200 | 0.0 | 0.0 | 0.00 | 0.00 | 0.00 | 89 | 1013.3 |
| 20260902104605 | 48 | 200 | 0.0 | 0.0 | 0.00 | 0.00 | 0.00 | 88 | 1013.2 |
| 20260902103106 | 48 | 200 | 0.0 | 0.0 | 0.00 | 0.00 | 0.00 | 88 | 1013.2 |
| 20260902101559 | 48 | 200 | 0.0 | 0.0 | 0.00 | 0.00 | 0.00 | 88 | 1013.2 |
| 20260902100047 | 48 | 200 | 0.0 | 0.0 | 0.00 | 0.00 | 0.00 | 87 | 1013.3 |
| 20260902094545 | 48 | 200 | 0.0 | 0.0 | 0.00 | 0.00 | 0.00 | 87 | 1013.3 |
| 20260902093042 | 49 | 200 | 0.0 | 0.0 | 0.00 | 0.00 | 0.00 | 86 | 1013.2 |
| 20260902091541 | 49 | 200 | 0.0 | 0.0 | 0.00 | 0.00 | 0.00 | 85 | 1013.0 |
| 20260902090041 | 50 | 200 | 0.0 | 0.0 | 0.00 | 0.00 | 0.00 | 85 | 1012.9 |
| 20260902084540 | 50 | 200 | 0.0 | 0.0 | 0.00 | 0.00 | 0.00 | 84 | 1013.0 |
| 20260902083033 | 51 | 200 | 0.0 | 0.0 | 0.00 | 0.00 | 0.00 | 83 | 1012.9 |
| 20260902081532 | 51 | 200 | 0.0 | 0.0 | 0.00 | 0.00 | 0.00 | 85 | 1012.9 |
| 20260902080031 | 51 | 200 | 0.0 | 0.0 | 0.00 | 0.00 | 0.00 | 84 | 1012.9 |
| 20260902074529 | 51 | 200 | 0.0 | 0.0 | 0.00 | 0.00 | 0.00 | 83 | 1012.8 |
| 20260902073028 | 51 | 200 | 0.0 | 1.0 | 0.00 | 0.00 | 0.00 | 82 | 1012.8 |
| 20260902071524 | 52 | 142 | 0.0 | 1.0 | 0.00 | 0.00 | 0.00 | 82 | 1013.2 |
| 20260902070024 | 52 | 142 | 0.0 | 0.0 | 0.00 | 0.00 | 0.00 | 81 | 1013.0 |
| 20260902064521 | 52 | 142 | 0.0 | 1.0 | 0.00 | 0.00 | 0.00 | 80 | 1013.1 |
| 20260902063041 | 53 | 142 | 0.0 | 1.0 | 0.00 | 0.00 | 0.00 | 78 | 1013.2 |
| 20260902061520 | 53 | 142 | 0.0 | 0.0 | 0.00 | 0.00 | 0.00 | 77 | 1013.0 |
| 20260902060023 | 54 | 142 | 0.0 | 1.0 | 0.00 | 0.00 | 0.00 | 77 | 1013.2 |
| 20260902054522 | 54 | 142 | 0.0 | 0.0 | 0.00 | 0.00 | 0.00 | 76 | 1013.4 |
| 20260902053018 | 55 | 142 | 0.0 | 0.0 | 0.00 | 0.00 | 0.00 | 75 | 1013.3 |
| 20260902051519 | 55 | 142 | 0.0 | 0.0 | 0.00 | 0.00 | 0.00 | 74 | 1013.4 |
| 20260902050022 | 55 | 142 | 0.0 | 1.0 | 0.00 | 0.00 | 0.00 | 74 | 1013.4 |
| 20260902044531 | 56 | 234 | 0.0 | 0.0 | 0.00 | 0.00 | 0.00 | 71 | 1013.3 |
| 20260902043015 | 56 | 235 | 0.0 | 0.0 | 0.00 | 0.00 | 0.00 | 70 | 1013.2 |
| 20260902041512 | 57 | 235 | 0.0 | 0.0 | 0.00 | 0.00 | 0.00 | 68 | 1012.9 |
| 20260902040011 | 58 | 234 | 0.0 | 1.0 | 0.00 | 0.00 | 0.00 | 67 | 1012.5 |
| 20260902034508 | 59 | 193 | 0.0 | 1.0 | 0.00 | 0.00 | 0.00 | 65 | 1012.2 |
| 20260902033008 | 60 | 201 | 0.0 | 2.0 | 0.00 | 0.00 | 0.00 | 63 | 1011.9 |
| 20260902031523 | 60 | 210 | 0.0 | 2.0 | 0.00 | 0.00 | 0.00 | 61 | 1011.5 |
| 20260902030108 | 61 | 156 | 0.0 | 0.0 | 0.00 | 0.00 | 0.00 | 58 | 1011.1 |
| 20260902024519 | 62 | 158 | 0.0 | 0.0 | 0.00 | 0.00 | 0.00 | 55 | 1010.9 |
| 20260902023027 | 63 | 158 | 0.0 | 1.0 | 0.00 | 0.00 | 0.00 | 53 | 1010.7 |
| 20260902021519 | 64 | 286 | 0.0 | 2.0 | 0.00 | 0.00 | 0.00 | 51 | 1010.6 |
| 20260902020022 | 65 | 210 | 0.0 | 1.0 | 0.00 | 0.00 | 0.00 | 50 | 1010.5 |
| 20260902014517 | 66 | 246 | 0.0 | 3.0 | 0.00 | 0.00 | 0.00 | 49 | 1010.5 |
| 20260902013017 | 68 | 258 | 0.0 | 1.0 | 0.00 | 0.00 | 0.00 | 47 | 1010.3 |
| 20260902011520 | 68 | 198 | 1.0 | 4.0 | 0.00 | 0.00 | 0.00 | 45 | 1010.3 |
| 20260902010018 | 68 | 286 | 0.0 | 4.0 | 0.00 | 0.00 | 0.00 | 47 | 1010.4 |
| 20260902004516 | 69 | 239 | 0.0 | 3.0 | 0.00 | 0.00 | 0.00 | 47 | 1010.3 |
| 20260902003015 | 69 | 191 | 0.0 | 3.0 | 0.00 | 0.00 | 0.00 | 47 | 1010.3 |
| 20260902001514 | 70 | 191 | 0.0 | 3.0 | 0.00 | 0.00 | 0.00 | 45 | 1010.3 |
| 20260902000013 | 70 | 202 | 0.0 | 3.0 | 0.00 | 0.00 | 0.00 | 45 | 1010.3 |
| 20260901234512 | 69 | 137 | 1.0 | 3.0 | 0.00 | 0.04 | 0.00 | 46 | 1010.4 |
| 20260901233013 | 70 | 304 | 1.0 | 4.0 | 0.00 | 0.04 | 0.00 | 44 | 1010.5 |
| 20260901231511 | 70 | 259 | 2.0 | 5.0 | 0.00 | 0.04 | 0.00 | 43 | 1010.6 |
| 20260901230009 | 71 | 243 | 0.0 | 3.0 | 0.00 | 0.04 | 0.00 | 43 | 1010.6 |
| 20260901224511 | 71 | 143 | 0.0 | 3.0 | 0.00 | 0.06 | 0.00 | 44 | 1010.7 |
| 20260901223007 | 70 | 233 | 2.0 | 5.0 | 0.00 | 0.06 | 0.00 | 44 | 1010.6 |
| 20260901221506 | 71 | 224 | 1.0 | 5.0 | 0.00 | 0.06 | 0.00 | 43 | 1010.8 |
| 20260901220005 | 71 | 280 | 1.0 | 5.0 | 0.00 | 0.06 | 0.00 | 45 | 1010.7 |
| 20260901214502 | 71 | 269 | 3.0 | 5.0 | 0.00 | 0.06 | 0.00 | 45 | 1010.9 |
| 20260901213006 | 69 | 131 | 0.0 | 4.0 | 0.00 | 0.06 | 0.00 | 47 | 1011.1 |
| 20260901211508 | 69 | 195 | 1.0 | 4.0 | 0.00 | 0.06 | 0.00 | 46 | 1011.1 |
| 20260901210004 | 70 | 167 | 2.0 | 5.0 | 0.00 | 0.08 | 0.00 | 44 | 1011.2 |
| 20260901204501 | 71 | 214 | 2.0 | 4.0 | 0.00 | 0.08 | 0.00 | 44 | 1011.2 |
| 20260901203059 | 69 | 293 | 1.0 | 5.0 | 0.00 | 0.08 | 0.00 | 51 | 1011.2 |
| 20260901201558 | 69 | 217 | 0.0 | 5.0 | 0.00 | 0.08 | 0.00 | 49 | 1011.2 |
| 20260901200055 | 69 | 117 | 1.0 | 4.0 | 0.00 | 0.08 | 0.00 | 51 | 1011.5 |
| 20260901194602 | 68 | 242 | 0.0 | 5.0 | 0.00 | 0.11 | 0.00 | 53 | 1011.6 |
| 20260901193052 | 67 | 301 | 1.0 | 4.0 | 0.00 | 0.11 | 0.00 | 56 | 1011.7 |